Mount Sterling, KY

4:02 AM EDT on July 22, 2017 (GMT -0400)
Mount Sterling-Montgomery County

Weather History for KIOB - May, 2013

Change the Weather History Date:

Wednesday, May 15, 2013

  Actual Average Record
Temperature  
Mean Temperature 73 °F -  
Max Temperature 82 °F 74 °F 82 °F (2013)
Min Temperature 64 °F 53 °F 41 °F (2016)
Cooling Degree Days 8    
Growing Degree Days 23 (Base 50)    
Moisture  
Dew Point 55 °F    
Average Humidity 54    
Maximum Humidity 73    
Minimum Humidity 35    
Precipitation  
Precipitation 0.00 in - - ()
Sea Level Pressure  
Sea Level Pressure 29.98 in    
Wind  
Wind Speed 12 mph (West)    
Max Wind Speed 20 mph    
Max Gust Speed 26 mph    
Visibility 10 miles    
Events      
Averages and records for this station are not official NWS values.
T = Trace of Precipitation, MM = Missing Value Source: NWS Daily Summary

Daily Weather History Graph

Daily Weather History Graph

Search for Another Location

Airport or City:

Trip Planner

Search our weather history database for the weather conditions in past years. The results will help you decide how hot, cold, wet, or windy it might be!

Date:

Astronomy

May. 15, 2013 Rise Set
Actual Time 6:25 AM EDT 8:39 PM EDT
Civil Twilight 5:55 AM EDT 9:09 PM EDT
Nautical Twilight 5:19 AM EDT 9:45 PM EDT
Astronomical Twilight 4:39 AM EDT 10:25 PM EDT
Moon 10:59 AM EDT (5/15) 12:26 AM EDT (5/15)
Length of Visible Light 15h 13m
Length of Day
14h 14m
Waxing Crescent, 26% of the Moon is Illuminated
May 15
Waxing Crescent
May 18
First Quarter
May 25
Full
May 31
Last Quarter
Jun 8
New

Hourly Weather History & Observations

Time (EDT) Temp. Heat Index Dew Point Humidity Pressure Visibility Wind Dir Wind Speed Gust Speed Precip Events Conditions
12:15 AM 66.2 °F - 55.4 °F 68% 29.97 in 10.0 mi WSW 9.2 mph - N/A   Clear
12:35 AM 66.2 °F - 55.4 °F 68% 29.96 in 10.0 mi WSW 10.4 mph - N/A   Clear
12:55 AM 66.2 °F - 55.4 °F 68% 29.96 in 10.0 mi WSW 11.5 mph 16.1 mph N/A   Clear
1:15 AM 68.0 °F - 55.4 °F 64% 29.96 in 10.0 mi WSW 11.5 mph 17.3 mph N/A   Clear
1:35 AM 68.0 °F - 55.4 °F 64% 29.96 in 10.0 mi WSW 13.8 mph 17.3 mph N/A   Clear
1:55 AM 68.0 °F - 55.4 °F 64% 29.95 in 10.0 mi WSW 13.8 mph 18.4 mph N/A   Clear
2:15 AM 68.0 °F - 55.4 °F 64% 29.95 in 10.0 mi WSW 12.7 mph 19.6 mph N/A   Clear
2:35 AM 68.0 °F - 55.4 °F 64% 29.94 in 10.0 mi WSW 15.0 mph 23.0 mph N/A   Clear
2:55 AM 68.0 °F - 55.4 °F 64% 29.95 in 10.0 mi WSW 13.8 mph 20.7 mph N/A   Clear
3:15 AM 68.0 °F - 55.4 °F 64% 29.95 in 10.0 mi West 10.4 mph 21.9 mph N/A   Clear
3:35 AM 68.0 °F - 55.4 °F 64% 29.95 in 10.0 mi WSW 10.4 mph - N/A   Clear
3:55 AM 68.0 °F - 55.4 °F 64% 29.96 in 10.0 mi WSW 10.4 mph 16.1 mph N/A   Clear
4:15 AM 66.2 °F - 55.4 °F 68% 29.96 in 10.0 mi WSW 9.2 mph - N/A   Clear
4:35 AM 66.2 °F - 55.4 °F 68% 29.96 in 10.0 mi West 10.4 mph 18.4 mph N/A   Clear
4:55 AM 66.2 °F - 55.4 °F 68% 29.96 in 10.0 mi West 9.2 mph 16.1 mph N/A   Clear
5:15 AM 66.2 °F - 55.4 °F 68% 29.96 in 10.0 mi WSW 17.3 mph 23.0 mph N/A   Clear
5:35 AM 66.2 °F - 55.4 °F 68% 29.96 in 10.0 mi WSW 10.4 mph 20.7 mph N/A   Clear
5:55 AM 66.2 °F - 55.4 °F 68% 29.97 in 10.0 mi WSW 8.1 mph 18.4 mph N/A   Clear
6:15 AM 64.4 °F - 55.4 °F 73% 29.98 in 10.0 mi WSW 8.1 mph - N/A   Clear
6:35 AM 66.2 °F - 55.4 °F 68% 29.99 in 10.0 mi West 8.1 mph - N/A   Clear
6:55 AM 66.2 °F - 55.4 °F 68% 29.99 in 10.0 mi West 13.8 mph 21.9 mph N/A   Clear
7:15 AM 68.0 °F - 55.4 °F 64% 29.99 in 10.0 mi West 13.8 mph 20.7 mph N/A   Clear
7:35 AM 68.0 °F - 55.4 °F 64% 30.00 in 10.0 mi West 15.0 mph 20.7 mph N/A   Clear
7:55 AM 68.0 °F - 55.4 °F 64% 30.00 in 10.0 mi West 13.8 mph 19.6 mph N/A   Clear
8:15 AM 69.8 °F - 55.4 °F 60% 30.01 in 10.0 mi West 13.8 mph 20.7 mph N/A   Clear
8:35 AM 69.8 °F - 55.4 °F 60% 30.02 in 10.0 mi West 11.5 mph 20.7 mph N/A   Clear
8:55 AM 71.6 °F - 57.2 °F 60% 30.02 in 10.0 mi West 19.6 mph 24.2 mph N/A   Clear
9:15 AM 71.6 °F - 57.2 °F 60% 30.02 in 10.0 mi West 15.0 mph 24.2 mph N/A   Clear
9:35 AM 71.6 °F - 59.0 °F 64% 30.03 in 10.0 mi West 13.8 mph 21.9 mph N/A   Clear
9:55 AM 73.4 °F - 59.0 °F 61% 30.03 in 10.0 mi West 18.4 mph 23.0 mph N/A   Clear
10:15 AM 73.4 °F - 59.0 °F 61% 30.03 in 10.0 mi West 16.1 mph 21.9 mph N/A   Clear
10:35 AM 75.2 °F - 59.0 °F 57% 30.03 in 10.0 mi West 13.8 mph 24.2 mph N/A   Clear
10:55 AM 75.2 °F - 59.0 °F 57% 30.03 in 10.0 mi West 13.8 mph 23.0 mph N/A   Clear
11:15 AM 77.0 °F - 60.8 °F 57% 30.03 in 10.0 mi West 16.1 mph 21.9 mph N/A   Clear
11:35 AM 77.0 °F - 60.8 °F 57% 30.03 in 10.0 mi West 10.4 mph 17.3 mph N/A   Clear
11:55 AM 78.8 °F - 60.8 °F 54% 30.03 in 10.0 mi WSW 12.7 mph 23.0 mph N/A   Clear
12:15 PM 78.8 °F - 59.0 °F 51% 30.03 in 10.0 mi West 12.7 mph 20.7 mph N/A   Clear
12:35 PM 78.8 °F - 60.8 °F 54% 30.03 in 10.0 mi West 13.8 mph 19.6 mph N/A   Clear
12:55 PM 78.8 °F - 59.0 °F 51% 30.02 in 10.0 mi West 12.7 mph 21.9 mph N/A   Clear
1:15 PM 80.6 °F 81.5 °F 60.8 °F 51% 30.02 in 10.0 mi West 11.5 mph 20.7 mph N/A   Clear
1:55 PM 80.6 °F 81.1 °F 59.0 °F 48% 30.01 in 10.0 mi West 13.8 mph 20.7 mph N/A   Clear
2:15 PM 82.4 °F 82.0 °F 57.2 °F 42% 30.01 in 10.0 mi West 16.1 mph 21.9 mph N/A   Clear
2:35 PM 82.4 °F 82.0 °F 57.2 °F 42% 30.00 in 10.0 mi West 13.8 mph 21.9 mph N/A   Clear
2:55 PM 82.4 °F 81.7 °F 55.4 °F 39% 29.99 in 10.0 mi West 16.1 mph 24.2 mph N/A   Clear
3:15 PM 82.4 °F 82.5 °F 59.0 °F 45% 29.99 in 10.0 mi West 18.4 mph 24.2 mph N/A   Clear
3:35 PM 82.4 °F 82.0 °F 57.2 °F 42% 29.98 in 10.0 mi West 17.3 mph 24.2 mph N/A   Clear
3:55 PM 82.4 °F 82.0 °F 57.2 °F 42% 29.97 in 10.0 mi West 16.1 mph 23.0 mph N/A   Clear
4:15 PM 82.4 °F 81.7 °F 55.4 °F 39% 29.97 in 10.0 mi West 12.7 mph 23.0 mph N/A   Clear
4:35 PM 82.4 °F 81.4 °F 53.6 °F 37% 29.96 in 10.0 mi West 17.3 mph 26.5 mph N/A   Clear
4:55 PM 82.4 °F - 51.8 °F 35% 29.95 in 10.0 mi West 15.0 mph 24.2 mph N/A   Clear
5:15 PM 82.4 °F 81.4 °F 53.6 °F 37% 29.93 in 10.0 mi WSW 16.1 mph 26.5 mph N/A   Clear
5:35 PM 82.4 °F 82.0 °F 57.2 °F 42% 29.93 in 10.0 mi WSW 16.1 mph 23.0 mph N/A   Clear
5:55 PM 82.4 °F 81.7 °F 55.4 °F 39% 29.93 in 10.0 mi WSW 18.4 mph 24.2 mph N/A   Clear
6:15 PM 80.6 °F 80.3 °F 53.6 °F 39% 29.93 in 10.0 mi WSW 15.0 mph 21.9 mph N/A   Clear
6:35 PM 80.6 °F 80.3 °F 53.6 °F 39% 29.93 in 10.0 mi West 13.8 mph 26.5 mph N/A   Clear
6:55 PM 80.6 °F - 51.8 °F 37% 29.93 in 10.0 mi West 12.7 mph 24.2 mph N/A   Clear
7:15 PM 80.6 °F 80.3 °F 53.6 °F 39% 29.93 in 10.0 mi West 9.2 mph 18.4 mph N/A   Clear
7:35 PM 78.8 °F - 51.8 °F 39% 29.93 in 10.0 mi West 15.0 mph 18.4 mph N/A   Clear
7:55 PM 78.8 °F - 50.0 °F 36% 29.93 in 10.0 mi West 11.5 mph 19.6 mph N/A   Clear
8:15 PM 77.0 °F - 50.0 °F 39% 29.94 in 10.0 mi West 10.4 mph - N/A   Clear
8:35 PM 73.4 °F - 50.0 °F 44% 29.95 in 10.0 mi West 8.1 mph - N/A   Clear
8:55 PM 73.4 °F - 50.0 °F 44% 29.95 in 10.0 mi West 6.9 mph - N/A   Clear
9:15 PM 71.6 °F - 50.0 °F 46% 29.95 in 10.0 mi West 8.1 mph - N/A   Clear
9:35 PM 71.6 °F - 50.0 °F 46% 29.95 in 10.0 mi WSW 9.2 mph - N/A   Clear
9:55 PM 71.6 °F - 50.0 °F 46% 29.96 in 10.0 mi West 8.1 mph - N/A   Clear
10:15 PM 71.6 °F - 50.0 °F 46% 29.97 in 10.0 mi West 8.1 mph - N/A   Clear
10:35 PM 71.6 °F - 50.0 °F 46% 29.97 in 10.0 mi West 8.1 mph - N/A   Clear
10:55 PM 69.8 °F - 50.0 °F 49% 29.97 in 10.0 mi WSW 8.1 mph - N/A   Clear
11:15 PM 69.8 °F - 50.0 °F 49% 29.97 in 10.0 mi West 9.2 mph - N/A   Clear
11:35 PM 69.8 °F - 50.0 °F 49% 29.97 in 10.0 mi WSW 8.1 mph - N/A   Clear
11:55 PM 68.0 °F - 50.0 °F 52% 29.97 in 10.0 mi WSW 8.1 mph - N/A   Clear